Savannah, GA

3:26 AM EDT on July 22, 2017 (GMT -0400)
Savannah International

Weather History for KSAV - December, 2013

Change the Weather History Date:

Wednesday, December 4, 2013

  Actual Average Record
Temperature  
Mean Temperature 68 °F 54 °F  
Max Temperature 80 °F 65 °F 82 °F (1955)
Min Temperature 56 °F 43 °F 22 °F (1960)
Degree Days  
Heating Degree Days 0 11  
Month to date heating degree days 26 44  
Since 1 July heating degree days 282 311  
Cooling Degree Days 3 0  
Month to date cooling degree days 3 3  
Year to date cooling degree days 2456 2452  
Growing Degree Days 18 (Base 50)    
Moisture  
Dew Point 58 °F    
Average Humidity 73    
Maximum Humidity 97    
Minimum Humidity 48    
Precipitation  
Precipitation 0.00 in 0.09 in 3.31 in (1964)
Month to date precipitation T 0.34  
Year to date precipitation 51.69 45.35  
Sea Level Pressure  
Sea Level Pressure 30.04 in    
Wind  
Wind Speed 5 mph (SW)    
Max Wind Speed 10 mph    
Max Gust Speed 20 mph    
Visibility 10 miles    
Events      
T = Trace of Precipitation, MM = Missing Value Source: NWS Daily Summary

Daily Weather History Graph

Daily Weather History Graph

Search for Another Location

Airport or City:

Trip Planner

Search our weather history database for the weather conditions in past years. The results will help you decide how hot, cold, wet, or windy it might be!

Date:

Astronomy

Dec. 04, 2013 Rise Set
Actual Time 7:10 AM EST 5:19 PM EST
Civil Twilight 6:43 AM EST 5:46 PM EST
Nautical Twilight 6:13 AM EST 6:16 PM EST
Astronomical Twilight 5:43 AM EST 6:46 PM EST
Moon 8:39 AM EST (12/4) 7:25 PM EST (12/4)
Length of Visible Light 11h 03m
Length of Day
10h 09m
Waxing Crescent, 4% of the Moon is Illuminated
Dec 4
Waxing Crescent
Dec 9
First Quarter
Dec 17
Full
Dec 25
Last Quarter
Jan 1
New

Hourly Weather History & Observations

Time (EST) Temp. Heat Index Dew Point Humidity Pressure Visibility Wind Dir Wind Speed Gust Speed Precip Events Conditions
12:53 AM 60.1 °F - 57.0 °F 90% 29.98 in 10.0 mi South 4.6 mph - N/A   Mostly Cloudy
1:53 AM 61.0 °F - 57.0 °F 87% 29.98 in 10.0 mi South 4.6 mph - N/A   Overcast
2:53 AM 62.1 °F - 57.0 °F 84% 29.98 in 10.0 mi SSW 5.8 mph - N/A   Overcast
3:53 AM 61.0 °F - 55.9 °F 83% 29.98 in 10.0 mi SSW 4.6 mph - N/A   Mostly Cloudy
4:53 AM 60.1 °F - 55.9 °F 86% 29.99 in 10.0 mi South 4.6 mph - N/A   Mostly Cloudy
5:53 AM 57.0 °F - 55.0 °F 93% 30.00 in 10.0 mi South 4.6 mph - N/A   Partly Cloudy
6:53 AM 60.1 °F - 57.0 °F 90% 30.01 in 10.0 mi SSW 5.8 mph - N/A   Mostly Cloudy
7:53 AM 61.0 °F - 57.0 °F 87% 30.03 in 10.0 mi SSW 4.6 mph - N/A   Scattered Clouds
8:53 AM 66.0 °F - 59.0 °F 78% 30.05 in 10.0 mi SSW 4.6 mph - N/A   Scattered Clouds
9:53 AM 69.1 °F - 61.0 °F 75% 30.07 in 10.0 mi WSW 4.6 mph - N/A   Scattered Clouds
10:53 AM 73.0 °F - 62.1 °F 68% 30.08 in 10.0 mi West 8.1 mph - N/A   Mostly Cloudy
11:53 AM 75.9 °F - 62.1 °F 62% 30.06 in 10.0 mi West 9.2 mph - N/A   Mostly Cloudy
12:53 PM 78.1 °F - 60.1 °F 54% 30.03 in 10.0 mi WNW 5.8 mph - N/A   Scattered Clouds
1:53 PM 80.1 °F 80.9 °F 60.1 °F 50% 30.02 in 10.0 mi WNW 6.9 mph - N/A   Mostly Cloudy
2:53 PM 79.0 °F - 59.0 °F 50% 30.00 in 10.0 mi WNW 4.6 mph - N/A   Mostly Cloudy
3:53 PM 78.1 °F - 57.9 °F 50% 30.01 in 10.0 mi West 6.9 mph - N/A   Mostly Cloudy
4:53 PM 73.9 °F - 57.9 °F 57% 30.03 in 10.0 mi WSW 3.5 mph - N/A   Mostly Cloudy
5:53 PM 68.0 °F - 59.0 °F 73% 30.04 in 10.0 mi Calm Calm - N/A   Mostly Cloudy
6:53 PM 64.9 °F - 59.0 °F 81% 30.06 in 10.0 mi South 6.9 mph - N/A   Mostly Cloudy
7:53 PM 64.0 °F - 59.0 °F 84% 30.07 in 10.0 mi SSE 4.6 mph - N/A   Scattered Clouds
8:53 PM 62.1 °F - 59.0 °F 90% 30.09 in 9.0 mi Calm Calm - N/A   Clear
9:53 PM 61.0 °F - 59.0 °F 93% 30.11 in 8.0 mi Calm Calm - N/A   Clear
10:53 PM 61.0 °F - 59.0 °F 93% 30.12 in 7.0 mi South 4.6 mph - N/A   Mostly Cloudy
11:53 PM 61.0 °F - 59.0 °F 93% 30.11 in 10.0 mi South 5.8 mph - N/A   Scattered Clouds